Weather History for Fort Collins, CO

Change the Weather History Date:

Wednesday, April 3, 2013

  Actual Average Record
Temperature  
Mean Temperature 48 °F -  
Max Temperature 60 °F 55 °F 75 °F (2005)
Min Temperature 35 °F 29 °F 23 °F (1999)
Degree Days  
Heating Degree Days 18    
Moisture  
Dew Point 35 °F    
Average Humidity 69    
Maximum Humidity 100    
Minimum Humidity 36    
Precipitation  
Precipitation 0.06 in - - ()
Sea Level Pressure  
Sea Level Pressure 30.11 in    
Wind  
Wind Speed 5 mph (SE)    
Max Wind Speed 15 mph    
Max Gust Speed 21 mph    
Visibility 8 miles    
Events      
Averages and records for this station are not official NWS values.
T = Trace of Precipitation, MM = Missing Value Source: NWS Daily Summary

Daily Weather History Graph

Daily Weather History Graph

Search for Another Location

Airport:

Trip Planner

Search our weather history database for the weather conditions in past years. The results will help you decide how hot, cold, wet, or windy it might be!

Date:

Astronomy

Apr. 03, 2013 Rise Set
Actual Time 6:40 AM MDT 7:27 PM MDT
Civil Twilight 6:12 AM MDT 7:54 PM MDT
Nautical Twilight 5:39 AM MDT 8:27 PM MDT
Astronomical Twilight 5:06 AM MDT 9:01 PM MDT
Moon 2:24 AM MDT (4/3) 12:40 PM MDT (4/3)
Length of Visible Light 13h 42m
Length of Day
12h 47m
Last Quarter, 44% of the Moon is Illuminated
Apr 3
Last Quarter
Apr 10
New
Apr 18
First Quarter
Apr 25
Full
May 2
Last Quarter

Hourly Weather History & Observations

Time (MDT) Temp. Windchill Dew Point Humidity Pressure Visibility Wind Dir Wind Speed Gust Speed Precip Events Conditions
12:15 AM 37.4 °F 34.9 °F 35.6 °F 93% 30.12 in 9.0 mi East 3.5 mph - N/A   Overcast
12:35 AM 37.4 °F 33.8 °F 35.6 °F 93% 30.12 in 10.0 mi East 4.6 mph - N/A   Overcast
12:55 AM 37.4 °F - 35.6 °F 93% 30.13 in 10.0 mi Calm Calm - N/A   Overcast
1:15 AM 37.4 °F 33.8 °F 35.6 °F 93% 30.13 in 5.0 mi NE 4.6 mph - N/A   Overcast
1:35 AM 37.4 °F 32.8 °F 35.6 °F 93% 30.13 in 4.0 mi ENE 5.8 mph - N/A   Overcast
1:55 AM 35.6 °F 29.2 °F 35.6 °F 100% 30.12 in 5.0 mi ENE 8.1 mph - N/A   Overcast
2:15 AM 35.6 °F 29.2 °F 33.8 °F 93% 30.12 in 5.0 mi ENE 8.1 mph - N/A   Overcast
2:55 AM 35.6 °F 32.8 °F 33.8 °F 93% 30.12 in 10.0 mi East 3.5 mph - N/A   Overcast
3:15 AM 35.6 °F - 33.8 °F 93% 30.13 in 8.0 mi Calm Calm - N/A   Overcast
3:35 AM 35.6 °F - 33.8 °F 93% 30.13 in 8.0 mi Calm Calm - N/A   Overcast
3:55 AM 35.6 °F - 33.8 °F 93% 30.13 in 6.0 mi Calm Calm - N/A   Overcast
4:15 AM 35.6 °F 29.9 °F 33.8 °F 93% 30.13 in 3.0 mi North 6.9 mph - N/A   Overcast
4:35 AM 35.6 °F 31.7 °F 33.8 °F 93% 30.13 in 3.0 mi NNE 4.6 mph - N/A   Overcast
4:55 AM 35.6 °F - 33.8 °F 93% 30.13 in 3.0 mi Calm Calm - N/A   Overcast
5:15 AM 35.6 °F 32.8 °F 33.8 °F 93% 30.13 in 3.0 mi ENE 3.5 mph - N/A   Overcast
5:35 AM 35.6 °F 31.7 °F 33.8 °F 93% 30.13 in 4.0 mi ENE 4.6 mph - N/A   Overcast
5:55 AM 35.6 °F 32.8 °F 33.8 °F 93% 30.13 in 4.0 mi East 3.5 mph - N/A   Overcast
6:15 AM 35.6 °F 31.7 °F 33.8 °F 93% 30.13 in 5.0 mi East 4.6 mph - N/A   Overcast
6:35 AM 35.6 °F 32.8 °F 33.8 °F 93% 30.14 in 5.0 mi East 3.5 mph - N/A   Overcast
6:55 AM 35.6 °F 32.8 °F 33.8 °F 93% 30.14 in 4.0 mi East 3.5 mph - N/A   Overcast
7:15 AM 35.6 °F 31.7 °F 33.8 °F 93% 30.14 in 5.0 mi East 4.6 mph - N/A   Overcast
7:35 AM 35.6 °F 30.7 °F 33.8 °F 93% 30.14 in 4.0 mi East 5.8 mph - N/A   Overcast
7:55 AM 35.6 °F 30.7 °F 33.8 °F 93% 30.15 in 4.0 mi East 5.8 mph - N/A   Overcast
8:15 AM 35.6 °F 32.8 °F 35.6 °F 100% 30.15 in 4.0 mi ESE 3.5 mph - N/A   Overcast
8:35 AM 37.4 °F 34.9 °F 35.6 °F 93% 30.15 in 7.0 mi SSE 3.5 mph - N/A   Overcast
8:55 AM 37.4 °F - 35.6 °F 93% 30.15 in 8.0 mi Calm Calm - N/A   Overcast
9:15 AM 37.4 °F 33.8 °F 35.6 °F 93% 30.15 in 8.0 mi South 4.6 mph - N/A   Overcast
9:35 AM 37.4 °F 32.1 °F 35.6 °F 93% 30.15 in 9.0 mi South 6.9 mph - N/A   Overcast
10:15 AM 39.2 °F - 35.6 °F 87% 30.15 in 10.0 mi Calm Calm - N/A   Overcast
10:35 AM 39.2 °F 33.0 °F 35.6 °F 87% 30.14 in 10.0 mi South 9.2 mph - N/A   Overcast
10:55 AM 41.0 °F 35.8 °F 35.6 °F 81% 30.14 in 10.0 mi South 8.1 mph - N/A   Overcast
11:15 AM 42.8 °F 38.6 °F 37.4 °F 81% 30.14 in 10.0 mi South 6.9 mph - N/A   Overcast
11:35 AM 44.6 °F 40.7 °F 37.4 °F 76% 30.13 in 10.0 mi SSE 6.9 mph - N/A   Mostly Cloudy
11:55 AM 44.6 °F 40.7 °F 37.4 °F 76% 30.13 in 10.0 mi South 6.9 mph - N/A   Scattered Clouds
12:15 PM 46.4 °F 42.4 °F 39.2 °F 76% 30.12 in 10.0 mi South 8.1 mph - N/A   Partly Cloudy
12:35 PM 46.4 °F 43.5 °F 39.2 °F 76% 30.11 in 10.0 mi South 5.8 mph - N/A   Clear
12:55 PM 50.0 °F - 39.2 °F 66% 30.10 in 10.0 mi South 10.4 mph - N/A   Clear
1:15 PM 50.0 °F - 37.4 °F 62% 30.10 in 10.0 mi South 6.9 mph - N/A   Clear
1:35 PM 51.8 °F - 39.2 °F 62% 30.09 in 10.0 mi SSE 6.9 mph - N/A   Clear
1:55 PM 53.6 °F - 39.2 °F 58% 30.09 in 10.0 mi SSE 8.1 mph - N/A   Clear
2:15 PM 55.4 °F - 39.2 °F 54% 30.09 in 10.0 mi SSW 5.8 mph - N/A   Clear
2:35 PM 55.4 °F - 37.4 °F 51% 30.08 in 10.0 mi SSE 6.9 mph - N/A   Clear
2:55 PM 57.2 °F - 37.4 °F 48% 30.07 in 10.0 mi SSE 9.2 mph - N/A   Clear
3:15 PM 59.0 °F - 37.4 °F 45% 30.07 in 10.0 mi SE 6.9 mph - N/A   Clear
3:35 PM 57.2 °F - 35.6 °F 44% 30.06 in 10.0 mi South 8.1 mph - N/A   Clear
3:55 PM 60.8 °F - 35.6 °F 39% 30.06 in 10.0 mi SSE 6.9 mph - N/A   Clear
4:15 PM 60.8 °F - 35.6 °F 39% 30.05 in 10.0 mi SE 5.8 mph - N/A   Clear
4:35 PM 60.8 °F - 35.6 °F 39% 30.05 in 10.0 mi SSE 8.1 mph - N/A   Clear
4:55 PM 60.8 °F - 35.6 °F 39% 30.05 in 10.0 mi SSE 6.9 mph - N/A   Clear
5:15 PM 60.8 °F - 35.6 °F 39% 30.04 in 10.0 mi SSE 8.1 mph - N/A   Partly Cloudy
5:35 PM 60.8 °F - 33.8 °F 36% 30.05 in 10.0 mi SSE 9.2 mph - N/A   Partly Cloudy
5:55 PM 60.8 °F - 33.8 °F 36% 30.05 in 10.0 mi SE 10.4 mph - N/A   Clear
6:15 PM 57.2 °F - 32.0 °F 38% 30.05 in 10.0 mi SSE 10.4 mph - N/A   Clear
6:35 PM 55.4 °F - 30.2 °F 38% 30.06 in 10.0 mi SE 8.1 mph - N/A   Clear
6:55 PM 53.6 °F - 30.2 °F 41% 30.06 in 10.0 mi SE 9.2 mph - N/A   Clear
7:15 PM 53.6 °F - 32.0 °F 44% 30.07 in 10.0 mi SE 5.8 mph - N/A   Mostly Cloudy
7:35 PM 53.6 °F - 30.2 °F 41% 30.08 in 10.0 mi SSE 4.6 mph - N/A   Mostly Cloudy
7:55 PM 51.8 °F - 32.0 °F 47% 30.07 in 10.0 mi South 8.1 mph - N/A   Overcast
8:15 PM 51.8 °F - 33.8 °F 50% 30.09 in 10.0 mi NE 15.0 mph - N/A   Overcast
8:35 PM 51.8 °F - 30.2 °F 44% 30.09 in 10.0 mi SE 6.9 mph - N/A   Mostly Cloudy
8:55 PM 48.2 °F - 30.2 °F 50% 30.11 in 10.0 mi SSW 5.8 mph - N/A   Mostly Cloudy
9:15 PM 53.6 °F - 30.2 °F 41% 30.13 in 10.0 mi NNW 15.0 mph 20.7 mph N/A   Mostly Cloudy
9:35 PM 53.6 °F - 33.8 °F 47% 30.14 in 10.0 mi North 11.5 mph - N/A   Mostly Cloudy
9:55 PM 53.6 °F - 33.8 °F 47% 30.14 in 10.0 mi North 12.7 mph 19.6 mph N/A   Mostly Cloudy
10:15 PM 51.8 °F - 33.8 °F 50% 30.14 in 10.0 mi NNW 10.4 mph - N/A   Mostly Cloudy
10:35 PM 51.8 °F - 32.0 °F 47% 30.14 in 10.0 mi NNW 9.2 mph - N/A   Scattered Clouds
11:15 PM 50.0 °F - 32.0 °F 50% 30.14 in 10.0 mi NW 4.6 mph - N/A   Mostly Cloudy
11:35 PM 51.8 °F - 33.8 °F 50% 30.14 in 10.0 mi North 5.8 mph - N/A   Mostly Cloudy
11:55 PM 48.2 °F - 32.0 °F 54% 30.14 in 10.0 mi North 5.8 mph - N/A   Clear